Location: Colle Santa Colomba
(42.0333°N, 12.5667°E)
Time: 02:05:35
(UTC+00:00)

MOS 1-B Rocket - Pass Details

Date: 25 October 2021
Orbit: 890 x 1606 km, 99.0° (Epoch: 28 November)

Event Time Altitude Azimuth Distance (km) Brightness Sun altitude
Rises 17:18:45 0° 15° (NNE) 3,942 7.0 -12.8°
Reaches altitude 10° 17:21:28 10° 17° (NNE) 2,888 6.3 -13.3°
Maximum altitude 17:27:50 76° 103° (ESE) 992 3.9 -14.5°
Drops below altitude 10° 17:33:31 10° 189° (S) 2,580 6.4 -15.6°
Sets 17:35:49 0° 191° (S) 3,494 7.1 -16.0°
